FW7016 Weather Reports


Display with metric or nautical units.
time (UTC)temp
F
wind
direction
speed
MPH
gust
MPH
rain 1hr
in
rain 24hr
in
rain mn
in
humidity
%
barometer
mb
20260510081901 44 215 0.0 0.0 0.00 0.00 0.00 88 1024.5
20260510081358 44 241 1.0 2.0 0.00 0.00 0.00 89 1024.3
20260510080855 45 225 0.0 3.0 0.00 0.00 0.00 88 1024.5
20260510080348 45 221 0.0 5.0 0.00 0.00 0.00 87 1024.5
20260510075846 45 233 0.0 2.0 0.00 0.00 0.00 84 1024.5
20260510075344 45 232 0.0 3.0 0.00 0.00 0.00 85 1024.2
20260510074840 44 220 2.0 3.0 0.00 0.00 0.00 86 1024.3
20260510074337 44 201 0.0 0.0 0.00 0.00 0.00 86 1024.2
20260510073833 44 211 0.0 0.0 0.00 0.00 0.00 86 1024.1
20260510073329 44 197 0.0 0.0 0.00 0.00 0.00 86 1024.1
20260510072825 44 206 0.0 0.0 0.00 0.00 0.00 86 1024.2
20260510072323 44 210 0.0 0.0 0.00 0.00 0.00 85 1024.1
20260510071819 44 216 0.0 0.0 0.00 0.00 0.00 85 1024.2
20260510071315 44 216 0.0 0.0 0.00 0.00 0.00 85 1024.1
20260510070814 44 222 0.0 2.0 0.00 0.00 0.00 84 1024.3
20260510070310 44 216 0.0 0.0 0.00 0.00 0.00 84 1024.2
20260510065810 44 223 0.0 0.0 0.00 0.00 0.00 85 1024.3
20260510065307 44 225 0.0 0.0 0.00 0.00 0.00 85 1024.3
20260510064804 44 210 0.0 0.0 0.00 0.00 0.00 85 1024.2
20260510064302 43 237 0.0 0.0 0.00 0.00 0.00 85 1024.1
20260510063757 43 235 0.0 0.0 0.00 0.00 0.00 86 1024.2
20260510063254 43 229 0.0 0.0 0.00 0.00 0.00 86 1024.3
20260510062750 43 226 1.0 3.0 0.00 0.00 0.00 86 1024.2
20260510062241 43 44 0.0 3.0 0.00 0.00 0.00 86 1024.0
20260510061736 43 303 0.0 0.0 0.00 0.00 0.00 86 1023.8
20260510061234 44 344 0.0 0.0 0.00 0.00 0.00 86 1023.9
20260510060730 44 169 0.0 0.0 0.00 0.00 0.00 86 1023.4
20260510060227 44 248 0.0 0.0 0.00 0.00 0.00 85 1023.9
20260510055723 44 288 0.0 0.0 0.00 0.00 0.00 85 1023.9
20260510055222 44 289 0.0 2.0 0.00 0.00 0.00 86 1023.6
20260510054721 44 281 2.0 5.0 0.00 0.00 0.00 86 1023.8
20260510054217 44 265 1.0 2.0 0.00 0.00 0.00 87 1023.9
20260510053712 44 268 0.0 0.0 0.00 0.00 0.00 88 1023.5
20260510053208 43 230 0.0 3.0 0.00 0.00 0.00 88 1023.3
20260510052704 43 304 0.0 3.0 0.00 0.00 0.00 89 1023.3
20260510052200 42 233 0.0 0.0 0.00 0.00 0.00 89 1023.3
20260510051656 42 254 0.0 2.0 0.00 0.00 0.00 89 1023.2
20260510051153 42 199 0.0 0.0 0.00 0.00 0.00 89 1022.9
20260510050650 42 202 0.0 2.0 0.00 0.00 0.00 88 1022.9
20260510050148 42 201 3.0 3.0 0.00 0.00 0.00 88 1022.7
20260510045644 42 296 0.0 3.0 0.00 0.00 0.00 88 1022.9
20260510045141 42 300 0.0 7.0 0.00 0.00 0.00 88 1022.7
20260510044637 42 312 6.0 8.0 0.00 0.00 0.00 88 1022.6
20260510044134 42 253 3.0 7.0 0.00 0.00 0.00 88 1022.5
20260510043630 42 321 6.0 9.0 0.00 0.00 0.00 88 1022.7
20260510043127 42 284 6.0 8.0 0.00 0.00 0.00 89 1022.9
20260510042624 42 322 6.0 7.0 0.00 0.00 0.00 89 1022.6
20260510042120 42 313 3.0 5.0 0.00 0.00 0.00 89 1022.9
20260510041618 42 307 0.0 6.0 0.00 0.00 0.00 89 1022.8
20260510041115 43 327 5.0 7.0 0.00 0.00 0.00 89 1022.6
20260510040612 43 310 3.0 8.0 0.00 0.00 0.00 90 1022.7
20260510040108 43 290 4.0 9.0 0.00 0.00 0.00 89 1022.6
20260510035604 43 229 10.0 11.0 0.00 0.00 0.00 89 1022.3
20260510035103 43 314 10.0 14.0 0.00 0.00 0.00 89 1022.7
20260510034602 43 301 7.0 11.0 0.00 0.00 0.00 88 1022.3
20260510034058 43 337 9.0 11.0 0.00 0.00 0.00 88 1022.3
20260510033549 43 283 9.0 14.0 0.00 0.00 0.00 88 1022.1
20260510033047 44 344 12.0 16.0 0.00 0.00 0.00 88 1022.1
20260510032543 44 318 12.0 14.0 0.00 0.00 0.00 88 1022.2
20260510032038 43 303 9.0 11.0 0.00 0.00 0.00 89 1022.0
20260510031533 42 335 8.0 9.0 0.00 0.00 0.00 91 1022.0
20260510031029 42 271 5.0 6.0 0.00 0.00 0.00 90 1022.1
20260510030526 42 293 5.0 6.0 0.00 0.00 0.00 90 1022.1
20260510030023 42 242 3.0 6.0 0.00 0.00 0.00 90 1022.1
20260510025520 43 247 5.0 7.0 0.00 0.00 0.00 89 1021.9
20260510025017 43 12 7.0 8.0 0.00 0.00 0.00 89 1021.6
20260510024514 43 6 7.0 9.0 0.00 0.00 0.00 89 1021.5
20260510024010 43 218 4.0 8.0 0.00 0.00 0.00 89 1021.5
20260510023506 43 348 6.0 8.0 0.00 0.00 0.00 88 1021.4
20260510023003 44 33 8.0 10.0 0.00 0.00 0.00 88 1021.5
20260510022502 44 19 8.0 9.0 0.00 0.00 0.00 88 1021.4
20260510022002 44 3 6.0 8.0 0.00 0.00 0.00 87 1021.6
20260510021459 44 20 7.0 11.0 0.00 0.00 0.00 86 1021.5
20260510020956 44 5 7.0 13.0 0.00 0.00 0.00 86 1021.6
20260510020451 44 44 9.0 13.0 0.00 0.00 0.00 85 1021.6
20260510015947 44 4 12.0 14.0 0.00 0.00 0.00 84 1021.4
20260510015443 45 10 12.0 15.0 0.00 0.00 0.00 83 1021.5
20260510014938 45 5 12.0 15.0 0.00 0.00 0.00 83 1021.5
20260510014436 46 16 14.0 18.0 0.00 0.00 0.00 83 1021.0
20260510013932 46 26 16.0 22.0 0.00 0.00 0.00 82 1020.8
20260510013427 47 22 9.0 14.0 0.00 0.00 0.00 80 1020.7
20260510012923 47 354 17.0 22.0 0.00 0.00 0.00 80 1020.6
20260510012418 47 13 19.0 22.0 0.00 0.00 0.00 82 1020.6
20260510011912 47 5 10.0 21.0 0.00 0.00 0.00 83 1020.6
20260510011408 46 37 13.0 18.0 0.00 0.00 0.00 84 1020.4
20260510010904 46 29 17.0 26.0 0.00 0.00 0.00 84 1020.6
20260510010402 46 40 14.0 29.0 0.00 0.00 0.00 84 1020.7
20260510005858 46 18 16.0 27.0 0.00 0.00 0.00 84 1020.7
20260510005354 47 30 17.0 22.0 0.00 0.00 0.00 84 1020.1
20260510004852 47 10 26.0 33.0 0.00 0.00 0.00 83 1021.0
20260510004349 47 15 21.0 27.0 0.00 0.00 0.00 83 1021.4
20260510003847 47 6 24.0 30.0 0.00 0.00 0.00 84 1021.4
20260510003344 47 3 22.0 31.0 0.00 0.00 0.00 84 1020.8
20260510002842 47 346 20.0 24.0 0.00 0.00 0.00 84 1020.4
20260510002340 48 17 23.0 34.0 0.00 0.00 0.00 84 1020.1
20260510001837 48 22 20.0 26.0 0.00 0.00 0.00 83 1019.6
20260510001335 48 28 22.0 30.0 0.00 0.00 0.00 84 1019.6
20260510000830 48 32 26.0 34.0 0.00 0.00 0.00 84 1018.9
20260510000328 48 8 29.0 32.0 0.00 0.00 0.00 84 1018.9
20260509235824 48 32 30.0 35.0 0.00 0.00 0.00 83 1018.7
20260509235321 48 347 31.0 35.0 0.00 0.00 0.00 84 1018.9
20260509234817 49 16 30.0 34.0 0.00 0.00 0.00 84 1018.8
20260509234314 49 353 31.0 37.0 0.00 0.00 0.00 84 1018.2
20260509233812 49 57 26.0 35.0 0.00 0.00 0.00 85 1018.3
20260509233309 49 12 27.0 42.0 0.00 0.00 0.00 85 1018.1
20260509232805 49 35 27.0 42.0 0.00 0.00 0.00 86 1018.1
20260509232306 49 26 29.0 33.0 0.00 0.00 0.00 87 1017.5
20260509231759 48 45 17.0 33.0 0.00 0.00 0.00 86 1016.3
20260509231256 46 21 28.0 40.0 0.00 0.00 0.00 88 1016.7
20260509230754 48 11 33.0 42.0 0.00 0.00 0.00 84 1017.5
20260509230251 50 4 26.0 38.0 0.00 0.00 0.00 79 1018.6
20260509225745 50 21 35.0 40.0 0.00 0.00 0.00 77 1017.5
20260509225242 50 12 35.0 48.0 0.00 0.00 0.00 77 1016.2
20260509224738 50 37 39.0 45.0 0.00 0.00 0.00 77 1016.1
20260509224235 51 21 36.0 45.0 0.00 0.00 0.00 75 1015.8
20260509223732 52 50 33.0 45.0 0.00 0.00 0.00 70 1016.2
20260509223229 55 26 28.0 40.0 0.00 0.00 0.00 68 1015.6
20260509222726 59 357 37.0 43.0 0.00 0.00 0.00 54 1015.8
20260509222221 63 35 15.0 18.0 0.00 0.00 0.00 42 1016.2
20260509221717 64 18 10.0 21.0 0.00 0.00 0.00 42 1016.0
20260509221213 64 68 8.0 14.0 0.00 0.00 0.00 40 1015.7
20260509220709 64 60 7.0 11.0 0.00 0.00 0.00 41 1015.5
20260509220206 65 41 7.0 20.0 0.00 0.00 0.00 41 1015.1
20260509215701 66 66 17.0 22.0 0.00 0.00 0.00 38 1014.9
20260509215158 67 67 8.0 16.0 0.00 0.00 0.00 39 1015.0
20260509214655 67 12 21.0 23.0 0.00 0.00 0.00 38 1015.1
20260509214152 65 355 5.0 11.0 0.00 0.00 0.00 38 1015.0
20260509213649 66 28 10.0 15.0 0.00 0.00 0.00 39 1015.3
20260509213145 66 48 5.0 8.0 0.00 0.00 0.00 38 1015.0
20260509212642 65 61 5.0 18.0 0.00 0.00 0.00 39 1015.3
20260509212139 66 68 0.0 7.0 0.00 0.00 0.00 38 1015.5
20260509211635 65 81 7.0 13.0 0.00 0.00 0.00 39 1015.5
20260509211132 65 75 7.0 13.0 0.00 0.00 0.00 38 1015.3
20260509210629 65 60 3.0 8.0 0.00 0.00 0.00 39 1015.5
20260509210126 65 12 9.0 16.0 0.00 0.00 0.00 40 1015.6
20260509205621 65 34 12.0 16.0 0.00 0.00 0.00 40 1015.4
20260509205115 65 25 15.0 20.0 0.00 0.00 0.00 40 1015.6
20260509204611 65 54 12.0 16.0 0.00 0.00 0.00 40 1015.6
20260509204102 65 44 4.0 14.0 0.00 0.00 0.00 41 1015.8
20260509203558 65 62 3.0 14.0 0.00 0.00 0.00 41 1016.1
20260509203057 65 50 7.0 14.0 0.00 0.00 0.00 40 1016.0
20260509202556 66 359 8.0 21.0 0.00 0.00 0.00 40 1016.1
20260509202047 64 44 9.0 15.0 0.00 0.00 0.00 41 1016.0
20260509201542 64 23 8.0 13.0 0.00 0.00 0.00 41 1016.0
20260509201040 65 42 9.0 14.0 0.00 0.00 0.00 40 1016.2
20260509200539 64 61 3.0 13.0 0.00 0.00 0.00 39 1015.8
20260509200036 63 20 9.0 14.0 0.00 0.00 0.00 41 1016.3
20260509195532 64 27 6.0 11.0 0.00 0.00 0.00 41 1016.2
20260509195032 63 10 6.0 14.0 0.00 0.00 0.00 41 1016.1
20260509194526 63 89 4.0 9.0 0.00 0.00 0.00 41 1016.1
20260509194025 64 55 7.0 16.0 0.00 0.00 0.00 40 1016.3
20260509193524 65 59 5.0 11.0 0.00 0.00 0.00 39 1015.8
20260509193022 65 55 2.0 7.0 0.00 0.00 0.00 41 1016.2
20260509192518 65 353 10.0 13.0 0.00 0.00 0.00 41 1016.2
20260509192013 64 349 11.0 16.0 0.00 0.00 0.00 42 1016.3
20260509191508 63 83 2.0 11.0 0.00 0.00 0.00 41 1016.2
20260509191004 64 36 6.0 13.0 0.00 0.00 0.00 41 1016.2
20260509190501 64 29 5.0 10.0 0.00 0.00 0.00 42 1016.6
20260509185959 64 331 12.0 17.0 0.00 0.00 0.00 40 1016.6
20260509185455 64 342 1.0 15.0 0.00 0.00 0.00 41 1016.4
20260509184952 63 327 6.0 13.0 0.00 0.00 0.00 41 1016.2
20260509184450 63 9 10.0 11.0 0.00 0.00 0.00 43 1016.4
20260509183946 63 337 9.0 16.0 0.00 0.00 0.00 43 1016.4
20260509183441 63 55 4.0 10.0 0.00 0.00 0.00 42 1016.2
20260509182938 64 15 11.0 14.0 0.00 0.00 0.00 42 1016.2
20260509182434 64 346 16.0 22.0 0.00 0.00 0.00 41 1016.3
20260509181931 62 20 13.0 18.0 0.00 0.00 0.00 42 1016.2
20260509181429 62 356 13.0 17.0 0.00 0.00 0.00 44 1016.3
20260509180926 63 33 7.0 13.0 0.00 0.00 0.00 43 1016.4
20260509180421 64 19 11.0 17.0 0.00 0.00 0.00 43 1016.7
20260509175919 65 2 9.0 16.0 0.00 0.00 0.00 43 1016.3
20260509175414 64 24 14.0 20.0 0.00 0.00 0.00 43 1016.2
20260509174906 63 32 5.0 15.0 0.00 0.00 0.00 43 1016.1
20260509174402 63 18 9.0 11.0 0.00 0.00 0.00 41 1016.1
20260509173858 64 2 13.0 20.0 0.00 0.00 0.00 42 1016.2
20260509173357 62 24 8.0 15.0 0.00 0.00 0.00 44 1016.3
20260509172854 63 29 17.0 20.0 0.00 0.00 0.00 44 1016.1
20260509172351 63 30 7.0 16.0 0.00 0.00 0.00 43 1016.2
20260509171847 63 38 7.0 13.0 0.00 0.00 0.00 41 1016.3
20260509171343 63 0 18.0 21.0 0.00 0.00 0.00 42 1016.6
20260509170840 63 4 16.0 21.0 0.00 0.00 0.00 41 1016.2
20260509170335 63 47 5.0 17.0 0.00 0.00 0.00 43 1016.6
20260509165830 63 40 11.0 17.0 0.00 0.00 0.00 41 1016.2
20260509165325 62 50 11.0 16.0 0.00 0.00 0.00 43 1016.3
20260509164821 63 41 22.0 25.0 0.00 0.00 0.00 43 1016.3
20260509164317 63 31 9.0 13.0 0.00 0.00 0.00 44 1016.1
20260509163814 63 26 8.0 18.0 0.00 0.00 0.00 44 1016.1
20260509163311 63 26 11.0 16.0 0.00 0.00 0.00 45 1016.1
20260509162810 62 345 14.0 17.0 0.00 0.00 0.00 45 1015.7
20260509162309 62 272 10.0 14.0 0.00 0.00 0.00 45 1016.0
20260509161805 62 355 13.0 20.0 0.00 0.00 0.00 44 1015.5
20260509161301 62 40 11.0 16.0 0.00 0.00 0.00 46 1016.1
20260509160756 62 14 20.0 27.0 0.00 0.00 0.00 44 1015.8
20260509160253 62 351 17.0 20.0 0.00 0.00 0.00 47 1015.8
20260509155748 62 356 16.0 22.0 0.00 0.00 0.00 46 1015.7
20260509155245 62 352 16.0 20.0 0.00 0.00 0.00 45 1016.0
20260509154741 62 2 17.0 20.0 0.00 0.00 0.00 46 1015.6
20260509154239 63 4 5.0 20.0 0.00 0.00 0.00 46 1015.6
20260509153736 62 349 8.0 15.0 0.00 0.00 0.00 46 1015.7
20260509153231 62 350 10.0 16.0 0.00 0.00 0.00 45 1015.6
20260509152728 61 321 8.0 13.0 0.00 0.00 0.00 47 1015.4
20260509152224 61 324 5.0 13.0 0.00 0.00 0.00 48 1015.5
20260509151722 61 356 9.0 14.0 0.00 0.00 0.00 49 1015.3
20260509151218 61 3 7.0 15.0 0.00 0.00 0.00 50 1015.3
20260509150716 60 12 11.0 14.0 0.00 0.00 0.00 49 1015.3
20260509150214 60 4 14.0 16.0 0.00 0.00 0.00 50 1015.3
20260509145710 60 5 12.0 14.0 0.00 0.00 0.00 50 1015.5
20260509145206 60 15 11.0 17.0 0.00 0.00 0.00 52 1015.3
20260509144702 59 24 11.0 15.0 0.00 0.00 0.00 52 1015.3
20260509144159 59 299 10.0 15.0 0.00 0.00 0.00 54 1015.3
20260509143657 59 327 10.0 13.0 0.00 0.00 0.00 54 1015.3
20260509143154 59 26 13.0 15.0 0.00 0.00 0.00 52 1015.3
20260509142649 58 20 10.0 14.0 0.00 0.00 0.00 54 1015.4
20260509142146 58 28 10.0 15.0 0.00 0.00 0.00 56 1015.1
20260509141642 58 13 11.0 16.0 0.00 0.00 0.00 54 1015.3
20260509141138 57 7 8.0 13.0 0.00 0.00 0.00 55 1015.3
20260509140635 57 41 8.0 13.0 0.00 0.00 0.00 57 1015.4
20260509140133 56 17 9.0 15.0 0.00 0.00 0.00 59 1015.4
20260509135630 54 352 12.0 14.0 0.00 0.00 0.00 61 1015.3
20260509135128 52 332 6.0 11.0 0.00 0.00 0.00 70 1015.3
20260509134625 51 318 9.0 13.0 0.00 0.00 0.00 73 1015.3
20260509134122 50 216 8.0 11.0 0.00 0.00 0.00 75 1015.5
20260509133620 49 318 9.0 10.0 0.00 0.00 0.00 76 1015.4
20260509133117 49 320 8.0 11.0 0.00 0.00 0.00 76 1015.0
20260509132615 49 323 9.0 13.0 0.00 0.00 0.00 75 1015.0
20260509132113 49 309 12.0 15.0 0.00 0.00 0.00 75 1014.9
20260509131608 49 353 11.0 15.0 0.00 0.00 0.00 75 1014.7
20260509131106 49 325 11.0 15.0 0.00 0.00 0.00 74 1014.5
20260509130601 50 332 11.0 15.0 0.00 0.00 0.00 72 1014.4
20260509130058 50 292 12.0 16.0 0.00 0.00 0.00 71 1014.3
20260509125555 49 338 9.0 20.0 0.00 0.00 0.00 73 1014.5
20260509125051 48 296 10.0 16.0 0.00 0.00 0.00 75 1014.2
20260509124548 46 291 10.0 13.0 0.00 0.00 0.00 77 1014.2
20260509124045 46 296 12.0 15.0 0.00 0.00 0.00 77 1014.2
20260509123543 46 295 12.0 15.0 0.00 0.00 0.00 78 1014.1
20260509123039 45 305 13.0 15.0 0.00 0.00 0.00 78 1013.8
20260509122535 45 268 10.0 15.0 0.00 0.00 0.00 79 1014.0
20260509122033 45 272 10.0 13.0 0.00 0.00 0.00 79 1013.6
20260509121529 45 291 10.0 13.0 0.00 0.00 0.00 79 1013.6
20260509121027 45 293 9.0 14.0 0.00 0.00 0.00 79 1013.4
20260509120525 45 344 9.0 14.0 0.00 0.00 0.00 79 1013.2
20260509120023 45 283 10.0 15.0 0.00 0.00 0.00 80 1013.1
20260509115519 44 280 9.0 11.0 0.00 0.00 0.00 80 1013.1
20260509115017 44 289 10.0 14.0 0.00 0.00 0.00 80 1013.0
20260509114515 44 288 11.0 15.0 0.00 0.00 0.00 81 1013.1
20260509114014 44 291 9.0 13.0 0.00 0.00 0.00 81 1013.1
20260509113512 44 260 9.0 11.0 0.00 0.00 0.00 81 1012.9
20260509113009 45 271 8.0 11.0 0.00 0.00 0.00 81 1012.8
20260509112506 45 254 9.0 11.0 0.00 0.00 0.00 81 1012.9
20260509112002 45 316 7.0 10.0 0.00 0.00 0.00 81 1012.9
20260509111500 44 303 9.0 11.0 0.00 0.00 0.00 82 1012.7
20260509110957 44 292 7.0 8.0 0.00 0.00 0.00 82 1012.5
20260509110453 45 292 9.0 10.0 0.00 0.00 0.00 81 1012.8
20260509105950 45 268 7.0 11.0 0.00 0.00 0.00 81 1012.8
20260509105449 44 312 7.0 10.0 0.00 0.00 0.00 81 1012.5
20260509104946 45 247 8.0 10.0 0.00 0.00 0.00 81 1012.9
20260509104443 46 230 7.0 9.0 0.00 0.00 0.00 80 1012.5
20260509103940 46 309 8.0 10.0 0.00 0.00 0.00 78 1012.8
20260509103438 46 259 8.0 10.0 0.00 0.00 0.00 78 1012.8
20260509102936 47 263 6.0 8.0 0.00 0.00 0.00 77 1012.8
20260509102433 48 238 7.0 9.0 0.00 0.00 0.00 75 1012.8
20260509101928 49 211 7.0 11.0 0.00 0.00 0.00 72 1012.5
20260509101425 49 276 3.0 8.0 0.00 0.00 0.00 72 1012.5
20260509100923 49 247 5.0 9.0 0.00 0.00 0.00 71 1012.7
20260509100420 49 266 6.0 10.0 0.00 0.00 0.00 73 1012.9
20260509095916 48 267 7.0 10.0 0.00 0.00 0.00 72 1012.8
20260509095413 48 239 7.0 8.0 0.00 0.00 0.00 74 1012.7
20260509094910 48 240 3.0 7.0 0.00 0.00 0.00 74 1012.7
20260509094407 49 245 3.0 7.0 0.00 0.00 0.00 72 1012.8
20260509093905 49 290 8.0 10.0 0.00 0.00 0.00 71 1013.0
20260509093402 48 244 10.0 13.0 0.00 0.00 0.00 73 1012.8
20260509092900 47 249 7.0 9.0 0.00 0.00 0.00 76 1012.4
20260509092357 46 237 1.0 7.0 0.00 0.00 0.00 78 1012.8
20260509091856 47 238 3.0 8.0 0.00 0.00 0.00 77 1012.8
20260509091352 48 232 7.0 9.0 0.00 0.00 0.00 76 1012.4
20260509090850 48 233 7.0 9.0 0.00 0.00 0.00 76 1012.4
20260509090347 47 224 7.0 9.0 0.00 0.00 0.00 76 1012.5
20260509085844 47 232 7.0 9.0 0.00 0.00 0.00 77 1012.4
20260509085341 46 238 7.0 9.0 0.00 0.00 0.00 79 1012.7
20260509084837 46 226 4.0 8.0 0.00 0.00 0.00 80 1012.8
20260509084334 46 215 6.0 8.0 0.00 0.00 0.00 79 1012.3
20260509083832 46 228 8.0 9.0 0.00 0.00 0.00 79 1012.4
20260509083329 45 212 7.0 8.0 0.00 0.00 0.00 80 1012.3
20260509082825 46 226 5.0 7.0 0.00 0.00 0.00 79 1012.9
20260509082322 46 236 6.0 8.0 0.00 0.00 0.00 79 1012.5